Flag for Greenland Weather past 2 weeks in Ittoqqortoormiit, Greenland

Now
15 °F

Light snow. Ice fog.


Feels Like: 8 °F
Forecast: 7 / 14 °F
Wind: 5 mph from North

Location: Scoresbysund


UV Index: 0 (Low)

Visibility: 1 mi


Pressure: 29.79 "Hg

Humidity: 81%

Dew point: 10 °F

Location of IttoqqortoormiitLocation

Historic Weather in Ittoqqortoormiit

°F

Ittoqqortoormiit temperature yesterday

Maximum temperature yesterday: 20 °F (at 9:00 AM)
Minimum temperature yesterday: 10 °F (at 10:00 PM)
Average temperature yesterday: 15 °F

Past Weeks' High & Low Weather Summary

 TemperatureHumidityPressure
High25 °F (Apr 8, 4:00 AM)98% (Apr 15, 7:00 AM)30.04 "Hg (Apr 15, 7:00 AM)
Low-8 °F (Apr 14, 7:00 AM)44% (Apr 13, 9:00 AM)28.88 "Hg (Apr 18, 5:00 AM)
Average13 °F76%29.69 "Hg
* Reported Apr 4 5:00 PM — Apr 19 5:00 PM, Ittoqqortoormiit, Weather by CustomWeather, © 2014

Note: Actual official high and low records may vary slightly from our data, if they occured in-between our weather recording intervals... More about our weather records

Advertising

Historic Weather Conditions — Data for Previous 24 hours

 ConditionsComfort  
Time TempWeatherWind HumidityBarometerVisibility
5:00 PM
Apr 19
17 °FOvercast.5 mph70%29.79 "Hg15 mi
4:00 PM15 °FOvercast.13 mph69%29.79 "Hg11 mi
3:00 PM14 °FSprinkles. Overcast.20 mph70%29.79 "Hg7 mi
2:00 PM14 °FOvercast.21 mph67%29.79 "Hg6 mi
1:00 PM14 °FOvercast.17 mph70%29.79 "Hg14 mi
12:00 PM12 °FOvercast.14 mph73%29.78 "Hg16 mi
11:00 AM15 °FOvercast.2 mph71%29.77 "Hg12 mi
10:00 AM12 °FOvercast.17 mph66%29.74 "Hg13 mi
9:00 AM11 °FSnow flurries. Overcast.18 mph72%29.73 "Hg2 mi
8:00 AM11 °FSnow flurries. Overcast.25 mph66%29.69 "Hg1 mi
7:00 AM11 °FSnow flurries. Overcast.26 mph66%29.66 "Hg1 mi
6:00 AM11 °FLight snow. Scattered clouds.29 mph61%29.62 "Hg1 mi
5:00 AM12 °FSnow flurries. Overcast.26 mph65%29.60 "Hg1 mi
4:00 AM11 °FSnow flurries. Overcast.18 mph69%29.58 "Hg10 mi
3:00 AM12 °FLight snow. Overcast.20 mph67%29.58 "Hg7 mi
2:00 AM12 °FLight snow. Overcast.20 mph72%29.55 "Hg3 mi
1:00 AM11 °FSnow flurries. Overcast.22 mph73%29.50 "Hg3 mi
12:00 AM11 °FSnow flurries. Passing clouds.23 mph73%29.47 "Hg3 mi
11:00 PM
Apr 18
11 °FSnow flurries. Passing clouds.23 mph76%29.44 "Hg3 mi
10:00 PM10 °FSnow flurries. Overcast.24 mph79%29.41 "Hg1 mi
8:00 PM14 °FLight snow. Overcast.17 mph73%29.35 "Hg5 mi
7:00 PM14 °FLight snow. Overcast.18 mph81%29.29 "Hg3 mi
6:00 PM14 °FLight snow. Ice fog.18 mph84%29.29 "Hg1 mi
Weather by CustomWeather, © 2014

See weather overview